Weather History for Key West, FL

Change the Weather History Date:

Friday, February 8, 2013

  Actual Average Record
Temperature  
Mean Temperature 76 °F 70 °F  
Max Temperature 80 °F 76 °F 84 °F (1949)
Min Temperature 72 °F 66 °F 49 °F (1895)
Degree Days  
Heating Degree Days 0 1  
Month to date heating degree days 0 8  
Since 1 July heating degree days 5 59  
Cooling Degree Days 11 6  
Month to date cooling degree days 51 48  
Year to date cooling degree days 342 213  
Growing Degree Days 26 (Base 50)    
Moisture  
Dew Point 71 °F    
Average Humidity 84    
Maximum Humidity 93    
Minimum Humidity 74    
Precipitation  
Precipitation 0.00 in 0.04 in 1.15 in (1978)
Month to date precipitation 0.00 0.42  
Year to date precipitation 0.29 2.46  
Snow  
Snow 0.00 in - - ()
Month to date snowfall 0.0  
Since 1 July snowfall 0.0  
Snow Depth 0.00 in    
Sea Level Pressure  
Sea Level Pressure 30.02 in    
Wind  
Wind Speed 7 mph (West)    
Max Wind Speed 13 mph    
Max Gust Speed 15 mph    
Visibility 10 miles    
Events      
T = Trace of Precipitation, MM = Missing Value Source: NWS Daily Summary

Daily Weather History Graph

Daily Weather History Graph

Search for Another Location

Airport:

Trip Planner

Search our weather history database for the weather conditions in past years. The results will help you decide how hot, cold, wet, or windy it might be!

Date:

Astronomy

Feb. 08, 2013 Rise Set
Actual Time 7:05 AM EST 6:17 PM EST
Civil Twilight 6:41 AM EST 6:41 PM EST
Nautical Twilight 6:14 AM EST 7:08 PM EST
Astronomical Twilight 5:47 AM EST 7:34 PM EST
Moon 5:27 AM EST (2/8) 4:52 PM EST (2/8)
Length of Visible Light 11h 59m
Length of Day
11h 12m
Waning Crescent, 3% of the Moon is Illuminated
Feb 8
Waning Crescent
Feb 10
New
Feb 17
First Quarter
Feb 25
Full
Mar 4
Last Quarter

Hourly Weather History & Observations

Time (EST) Temp. Dew Point Humidity Pressure Visibility Wind Dir Wind Speed Gust Speed Precip Events Conditions
12:53 AM 73.0 °F 70.0 °F 90% 30.01 in 10.0 mi SE 4.6 mph - N/A   Clear
1:53 AM 73.9 °F 70.0 °F 87% 29.99 in 10.0 mi SSE 6.9 mph - N/A   Clear
2:53 AM 73.9 °F 70.0 °F 87% 29.97 in 10.0 mi South 9.2 mph - N/A   Clear
3:53 AM 73.9 °F 71.1 °F 91% 29.97 in 10.0 mi South 4.6 mph - N/A   Clear
4:53 AM 73.9 °F 71.1 °F 91% 29.96 in 10.0 mi SSW 8.1 mph - N/A   Clear
5:53 AM 73.9 °F 71.1 °F 91% 29.97 in 10.0 mi SW 8.1 mph - N/A   Clear
6:53 AM 73.4 °F 71.6 °F 94% 30.00 in 10.0 mi SW 6.9 mph - N/A   Clear
7:53 AM 75.0 °F 72.0 °F 90% 30.00 in 10.0 mi SW 6.9 mph - N/A   Clear
8:53 AM 75.9 °F 72.0 °F 87% 30.04 in 10.0 mi WSW 8.1 mph - N/A   Clear
9:53 AM 77.0 °F 72.0 °F 84% 30.05 in 10.0 mi SW 6.9 mph - N/A   Clear
10:53 AM 77.0 °F 72.0 °F 84% 30.06 in 10.0 mi SW 8.1 mph - N/A   Scattered Clouds
11:02 AM 77.0 °F 71.6 °F 83% 30.06 in 10.0 mi SW 6.9 mph - N/A   Mostly Cloudy
11:51 AM 78.8 °F 69.8 °F 74% 30.06 in 10.0 mi West 8.1 mph - N/A   Partly Cloudy
11:53 AM 79.0 °F 69.1 °F 72% 30.06 in 10.0 mi WNW 9.2 mph - N/A   Partly Cloudy
12:53 PM 78.1 °F 72.0 °F 81% 30.05 in 10.0 mi SW 8.1 mph - N/A   Partly Cloudy
1:34 PM 78.8 °F 71.6 °F 78% 30.03 in 10.0 mi SW 9.2 mph - N/A   Mostly Cloudy
1:41 PM 78.8 °F 71.6 °F 78% 30.03 in 10.0 mi SW 10.4 mph - N/A   Scattered Clouds
1:50 PM 78.8 °F 69.8 °F 74% 30.03 in 10.0 mi West 8.1 mph - N/A   Mostly Cloudy
1:53 PM 79.0 °F 70.0 °F 74% 30.03 in 10.0 mi WSW 8.1 mph - N/A   Mostly Cloudy
2:53 PM 79.0 °F 71.1 °F 77% 30.01 in 10.0 mi WSW 8.1 mph - N/A   Mostly Cloudy
3:05 PM 78.8 °F 69.8 °F 74% 30.01 in 10.0 mi West 8.1 mph - N/A   Scattered Clouds
3:53 PM 79.0 °F 70.0 °F 74% 30.00 in 10.0 mi West 10.4 mph - N/A   Clear
4:53 PM 78.1 °F 70.0 °F 76% 30.00 in 10.0 mi WNW 9.2 mph - N/A   Clear
5:22 PM 77.0 °F 69.8 °F 78% 30.01 in 10.0 mi WNW 9.2 mph - N/A   Mostly Cloudy
5:53 PM 77.0 °F 71.1 °F 82% 30.01 in 10.0 mi WNW 9.2 mph - N/A   Mostly Cloudy
6:09 PM 77.0 °F 71.6 °F 83% 30.01 in 10.0 mi WNW 9.2 mph - N/A   Scattered Clouds
6:41 PM 75.2 °F 71.6 °F 89% 30.02 in 10.0 mi WNW 5.8 mph - N/A   Mostly Cloudy
6:53 PM 75.9 °F 71.1 °F 85% 30.02 in 10.0 mi WNW 5.8 mph - N/A   Mostly Cloudy
7:03 PM 75.2 °F 71.6 °F 89% 30.02 in 10.0 mi WNW 6.9 mph - N/A   Scattered Clouds
7:32 PM 75.2 °F 71.6 °F 89% 30.03 in 10.0 mi NW 5.8 mph - N/A   Mostly Cloudy
7:53 PM 75.0 °F 72.0 °F 90% 30.04 in 10.0 mi NNW 6.9 mph - N/A   Mostly Cloudy
8:49 PM 73.4 °F 71.6 °F 94% 30.06 in 10.0 mi North 5.8 mph - N/A   Overcast
8:53 PM 73.9 °F 71.1 °F 91% 30.06 in 10.0 mi North 4.6 mph - N/A   Overcast
9:53 PM 73.0 °F 70.0 °F 90% 30.06 in 10.0 mi Calm Calm - N/A   Partly Cloudy
10:53 PM 73.9 °F 70.0 °F 87% 30.06 in 10.0 mi NNW 3.5 mph - N/A   Clear
11:53 PM 72.0 °F 69.1 °F 91% 30.07 in 10.0 mi NNW 6.9 mph - N/A   Clear